Location: Owl Hollow
(40.7341°N, 104.4073°W)
Time: 03:51:52
(UTC-06:00)

ISS - Visible Passes

Search period start: 27 May 2017 00:00
Search period end: 06 June 2017 00:00
Orbit: 402 x 408 km, 51.6° (Epoch: 27 May)

Date Brightness Start Highest point End Pass type
(mag) Time Alt. Az. Time Alt. Az. Time Alt. Az.
27 May -0.4 00:44:02 10° NNW 00:45:44 13° N 00:47:26 10° NE visible
27 May -2.0 02:20:00 10° NW 02:23:00 32° NNE 02:23:11 32° NE visible
27 May -2.1 04:01:13 18° S 04:01:13 18° S 04:02:22 10° SSE visible
27 May -0.9 22:13:28 10° WNW 22:15:54 19° NNW 22:18:20 10° NNE visible
27 May -0.5 23:51:54 10° NNW 23:53:23 12° N 23:54:52 10° NNE visible
28 May -1.2 01:28:08 10° NNW 01:30:11 21° N 01:30:11 21° N visible
28 May -1.4 21:20:49 10° W 21:23:38 26° NNW 21:26:28 10° NE visible
28 May -0.5 22:59:27 10° NNW 23:01:00 13° N 23:02:33 10° NNE visible
29 May -1.0 00:36:15 10° NNW 00:38:31 17° NNE 00:39:01 16° NNE visible
29 May -0.7 22:06:46 10° NW 22:08:37 14° N 22:10:29 10° NNE visible
29 May -0.7 23:44:19 10° NNW 23:46:11 14° N 23:48:01 10° NE visible
30 May -0.9 01:20:15 10° NW 01:20:50 14° NW 01:20:50 14° NW visible
30 May -0.8 21:14:00 10° WNW 21:16:16 17° NNW 21:18:33 10° NNE visible
30 May -0.7 22:52:14 10° NNW 22:53:47 13° N 22:55:20 10° NNE visible
31 May -1.3 00:28:20 10° NW 00:30:11 22° N 00:30:11 22° N visible
31 May -0.7 21:59:52 10° NNW 22:01:22 12° N 22:02:52 10° NNE visible
31 May -1.3 23:36:26 10° NNW 23:38:51 19° NNE 23:39:36 17° NE visible
01 Jun -0.8 21:07:13 10° NW 21:08:57 13° N 21:10:41 10° NNE visible
01 Jun -0.9 22:44:29 10° NNW 22:46:29 15° NNE 22:48:29 10° NE visible
02 Jun -1.3 00:20:24 10° NW 00:21:43 21° NW 00:21:43 21° NW visible
02 Jun -0.9 21:52:26 10° NNW 21:54:04 13° N 21:55:43 10° NE visible
02 Jun -2.0 23:28:26 10° NW 23:31:13 29° NNE 23:31:13 29° NNE visible
03 Jun -0.8 21:00:08 10° NNW 21:01:37 12° N 21:03:06 10° NNE visible
03 Jun -1.5 22:36:29 10° NNW 22:39:04 21° NNE 22:40:45 15° ENE visible
04 Jun -1.1 00:12:34 10° WNW 00:13:24 16° WNW 00:13:24 16° WNW visible
04 Jun -1.1 21:44:31 10° NNW 21:46:41 16° NNE 21:48:50 10° NE visible
04 Jun -2.7 23:20:27 10° NW 23:22:58 44° NNW 23:22:58 44° NNW visible
05 Jun -2.5 22:28:25 10° NW 22:31:28 34° NNE 22:32:33 27° ENE visible
